Orbital Elements at Epoch 2459200.5 (2020-Dec-17.0) TDB
Reference: JPL 17 (heliocentric ecliptic J2000)
Element | Value | Uncertainty (1-sigma) | Units |
e | .03804956126412413 | 4.2059e-08 | |
a | 2.623114465702879 | 1.5911e-08 | au |
q | 2.523306111137307 | 1.1174e-07 | au |
i | 2.501121171481433 | 4.5347e-06 | deg |
node | 24.36461728435675 | 0.00010265 | deg |
peri | 256.2009051428195 | 0.00012238 | deg |
M | 7.853667978496215 | 6.7825e-05 | deg |
tp | 2459166.647220934709 (2020-Nov-13.14722093) | 0.00029238 | TDB |
period | 1551.759063010245 4.25 | 1.4118e-05 3.865e-08 | d yr |
n | .2319947784301249 | 2.1108e-09 | deg/d |
Q | 2.722922820268451 | 1.6516e-08 | au |
|
| | Orbit Determination Parameters
Additional Information
|